,,PA_Meas_PMT16A,,PR_Meas_QMR101_102,,RH_Meas_QMH101,,SR_Meas_QMS101,,TA_Meas_QMH101,,GenWind,,GenWind,
time,status,PA,status,PR,status,RH,status,SR,status,TA,status,DirAvg,status,SpdAvg,
2014-09-17, 00:00:04,VALID,916.569,VALID,0,VALID,97.5035,VALID,0,VALID,19.0788,VALID,87,VALID,0,
2014-09-17, 00:01:05,VALID,916.533,VALID,0,VALID,97.4882,VALID,0,VALID,19.0788,VALID,87,VALID,0,
2014-09-17, 00:02:05,VALID,916.524,VALID,0,VALID,97.4959,VALID,0,VALID,19.0788,VALID,124,VALID,0,
2014-09-17, 00:03:05,VALID,916.486,VALID,0,VALID,97.4959,VALID,0,VALID,19.0983,VALID,124,VALID,0,
2014-09-17, 00:04:05,VALID,916.493,VALID,0,VALID,97.5035,VALID,0,VALID,19.0593,VALID,124,VALID,0,
2014-09-17, 00:05:05,VALID,916.486,VALID,0,VALID,97.5187,VALID,0.107441,VALID,19.0788,VALID,124,VALID,0,
2014-09-17, 00:06:05,VALID,916.481,VALID,0,VALID,97.5035,VALID,0,VALID,19.0788,VALID,124,VALID,0,
2014-09-17, 00:07:05,VALID,916.457,VALID,0,VALID,97.4882,VALID,0,VALID,19.0998,VALID,124,VALID,0,
2014-09-17, 00:08:05,VALID,916.461,VALID,0,VALID,97.4959,VALID,0,VALID,19.0788,VALID,124,VALID,0,
2014-09-17, 00:09:05,VALID,916.454,VALID,0,VALID,97.5187,VALID,0,VALID,19.0788,VALID,124,VALID,0,
2014-09-17, 00:10:05,VALID,916.432,VALID,0,VALID,97.5264,VALID,0,VALID,19.0593,VALID,124,VALID,0,
2014-09-17, 00:11:05,VALID,916.422,VALID,0,VALID,97.5187,VALID,0,VALID,19.0593,VALID,124,VALID,0,
2014-09-17, 00:12:05,VALID,916.419,VALID,0,VALID,97.5111,VALID,0,VALID,19.0398,VALID,124,VALID,0,
2014-09-17, 00:13:05,VALID,916.441,VALID,0,VALID,97.5187,VALID,0.107441,VALID,19.0593,VALID,124,VALID,0,
2014-09-17, 00:14:05,VALID,916.441,VALID,0,VALID,97.5111,VALID,0,VALID,19.0398,VALID,124,VALID,0,
2014-09-17, 00:15:05,VALID,916.432,VALID,0,VALID,97.5111,VALID,0,VALID,19.0008,VALID,124,VALID,0,
2014-09-17, 00:16:05,VALID,916.44,VALID,0,VALID,97.5264,VALID,0.107441,VALID,19.0008,VALID,124,VALID,0,
2014-09-17, 00:17:05,VALID,916.456,VALID,0,VALID,97.534,VALID,0,VALID,19.0008,VALID,124,VALID,0,
2014-09-17, 00:18:05,VALID,916.457,VALID,0,VALID,97.5187,VALID,0.107441,VALID,19.0008,VALID,124,VALID,0,
2014-09-17, 00:19:05,VALID,916.457,VALID,0,VALID,97.534,VALID,0.107441,VALID,18.9814,VALID,124,VALID,0,
2014-09-17, 00:20:05,VALID,916.453,VALID,0,VALID,97.534,VALID,0.107441,VALID,18.9424,VALID,124,VALID,0,
2014-09-17, 00:21:05,VALID,916.445,VALID,0,VALID,97.5264,VALID,0.107441,VALID,18.9438,VALID,124,VALID,0,
2014-09-17, 00:22:05,VALID,916.436,VALID,0,VALID,97.534,VALID,0,VALID,18.9229,VALID,124,VALID,0,
2014-09-17, 00:23:05,VALID,916.424,VALID,0,VALID,97.5416,VALID,0,VALID,18.9229,VALID,124,VALID,0,
2014-09-17, 00:24:05,VALID,916.402,VALID,0,VALID,97.5492,VALID,0,VALID,18.9229,VALID,124,VALID,0,
2014-09-17, 00:25:05,VALID,916.396,VALID,0,VALID,97.5492,VALID,0,VALID,18.9438,VALID,124,VALID,0,
2014-09-17, 00:26:05,VALID,916.39,VALID,0,VALID,97.534,VALID,0,VALID,18.9438,VALID,124,VALID,0,
2014-09-17, 00:27:05,VALID,916.377,VALID,0,VALID,97.5416,VALID,0,VALID,18.9424,VALID,124,VALID,0,
2014-09-17, 00:28:05,VALID,916.358,VALID,0,VALID,97.5416,VALID,0.107441,VALID,18.9424,VALID,124,VALID,0,
2014-09-17, 00:29:05,VALID,916.36,VALID,0,VALID,97.5416,VALID,0,VALID,18.9424,VALID,124,VALID,0,
2014-09-17, 00:30:05,VALID,916.344,VALID,0,VALID,97.5416,VALID,0,VALID,18.9619,VALID,124,VALID,0,
2014-09-17, 00:31:05,VALID,916.334,VALID,0,VALID,97.534,VALID,0,VALID,18.9619,VALID,124,VALID,0,
2014-09-17, 00:32:05,VALID,916.35,VALID,0,VALID,97.5492,VALID,0.107441,VALID,18.9814,VALID,124,VALID,0,
2014-09-17, 00:33:05,VALID,916.331,VALID,0,VALID,97.5569,VALID,0.107441,VALID,18.9424,VALID,124,VALID,0,
2014-09-17, 00:34:05,VALID,916.317,VALID,0,VALID,97.5416,VALID,0.107441,VALID,18.9619,VALID,124,VALID,0,
2014-09-17, 00:35:05,VALID,916.271,VALID,0,VALID,97.5721,VALID,0,VALID,18.9229,VALID,123,VALID,0,
2014-09-17, 00:36:05,VALID,916.295,VALID,0,VALID,97.5569,VALID,0,VALID,18.9438,VALID,124,VALID,0,
2014-09-17, 00:37:05,VALID,916.254,VALID,0,VALID,97.5797,VALID,0,VALID,18.9034,VALID,123,VALID,0,
2014-09-17, 00:38:05,VALID,916.234,VALID,0,VALID,97.5797,VALID,0,VALID,18.8839,VALID,119,VALID,0,
2014-09-17, 00:39:05,VALID,916.228,VALID,0,VALID,97.5873,VALID,0.107441,VALID,18.8449,VALID,113,VALID,0,
2014-09-17, 00:40:05,VALID,916.223,VALID,0,VALID,97.5721,VALID,0,VALID,18.8059,VALID,113,VALID,0,
2014-09-17, 00:41:05,VALID,916.198,VALID,0,VALID,97.6026,VALID,0.107441,VALID,18.7864,VALID,113,VALID,0,
2014-09-17, 00:42:05,VALID,916.198,VALID,0,VALID,97.5873,VALID,0,VALID,18.8059,VALID,110,VALID,0,
2014-09-17, 00:43:05,VALID,916.177,VALID,0,VALID,97.5797,VALID,0,VALID,18.7864,VALID,90,VALID,0,
2014-09-17, 00:44:05,VALID,916.146,VALID,0,VALID,97.5721,VALID,0.107441,VALID,18.8268,VALID,117,VALID,0,
2014-09-17, 00:45:05,VALID,916.173,VALID,0,VALID,97.5797,VALID,0,VALID,18.8254,VALID,118,VALID,0,
2014-09-17, 00:46:05,VALID,916.151,VALID,0,VALID,97.5797,VALID,0,VALID,18.8254,VALID,119,VALID,0,
2014-09-17, 00:47:05,VALID,916.167,VALID,0,VALID,97.5797,VALID,0,VALID,18.8463,VALID,118,VALID,0,
2014-09-17, 00:48:05,VALID,916.167,VALID,0,VALID,97.595,VALID,0,VALID,18.8449,VALID,118,VALID,0,
2014-09-17, 00:49:05,VALID,916.128,VALID,0,VALID,97.5873,VALID,0,VALID,18.8449,VALID,119,VALID,0,
2014-09-17, 00:50:05,VALID,916.108,VALID,0,VALID,97.5721,VALID,0,VALID,18.8449,VALID,118,VALID,0,
2014-09-17, 00:51:05,VALID,916.074,VALID,0,VALID,97.595,VALID,0.107441,VALID,18.8254,VALID,118,VALID,0,
2014-09-17, 00:52:05,VALID,916.034,VALID,0,VALID,97.595,VALID,0.107441,VALID,18.7864,VALID,118,VALID,0,
2014-09-17, 00:53:05,VALID,916.01,VALID,0,VALID,97.595,VALID,0,VALID,18.7878,VALID,118,VALID,0,
2014-09-17, 00:54:05,VALID,915.989,VALID,0,VALID,97.595,VALID,0,VALID,18.7864,VALID,118,VALID,0,
2014-09-17, 00:55:05,VALID,915.99,VALID,0,VALID,97.5797,VALID,0.107441,VALID,18.8254,VALID,118,VALID,0,
2014-09-17, 00:56:05,VALID,915.94,VALID,0,VALID,97.6102,VALID,0,VALID,18.8644,VALID,122,VALID,0,
2014-09-17, 00:57:05,VALID,915.939,VALID,0,VALID,97.5797,VALID,0,VALID,18.9034,VALID,124,VALID,0,
2014-09-17, 00:58:05,VALID,915.869,VALID,0,VALID,97.5797,VALID,0,VALID,18.9438,VALID,124,VALID,0,
2014-09-17, 00:59:05,VALID,915.915,VALID,0,VALID,97.5797,VALID,0,VALID,18.9034,VALID,124,VALID,0,
2014-09-17, 01:00:05,VALID,915.858,VALID,0,VALID,97.6026,VALID,0,VALID,18.9034,VALID,123,VALID,0,
2014-09-17, 01:01:05,VALID,915.823,VALID,0,VALID,97.5797,VALID,0.107441,VALID,18.9034,VALID,123,VALID,0,
2014-09-17, 01:02:05,VALID,915.811,VALID,0,VALID,97.6026,VALID,0,VALID,18.9034,VALID,124,VALID,0,
2014-09-17, 01:03:05,VALID,915.777,VALID,0,VALID,97.6102,VALID,0,VALID,18.8839,VALID,124,VALID,0,
2014-09-17, 01:04:05,VALID,915.748,VALID,0,VALID,97.595,VALID,0.107441,VALID,18.9034,VALID,124,VALID,0,
2014-09-17, 01:05:05,VALID,915.748,VALID,0,VALID,97.5721,VALID,0,VALID,18.9243,VALID,127,VALID,0,
2014-09-17, 01:06:05,VALID,915.721,VALID,0,VALID,97.5873,VALID,0.107441,VALID,18.9229,VALID,129,VALID,0,
2014-09-17, 01:07:05,VALID,915.724,VALID,0,VALID,97.595,VALID,0.107441,VALID,18.9814,VALID,132,VALID,0,
2014-09-17, 01:08:05,VALID,915.713,VALID,0,VALID,97.5797,VALID,0.107441,VALID,18.9619,VALID,149,VALID,0,
2014-09-17, 01:09:05,VALID,915.655,VALID,0,VALID,97.595,VALID,0,VALID,18.9619,VALID,151,VALID,0,
2014-09-17, 01:10:05,VALID,915.65,VALID,0,VALID,97.6026,VALID,0.107441,VALID,18.9424,VALID,151,VALID,0,
2014-09-17, 01:11:05,VALID,915.644,VALID,0,VALID,97.595,VALID,0,VALID,18.9424,VALID,151,VALID,0,
2014-09-17, 01:12:05,VALID,915.619,VALID,0,VALID,97.6026,VALID,0,VALID,18.9229,VALID,144,VALID,0,
2014-09-17, 01:13:05,VALID,915.609,VALID,0,VALID,97.6255,VALID,0.107441,VALID,18.9243,VALID,141,VALID,0,
2014-09-17, 01:14:05,VALID,915.597,VALID,0,VALID,97.6255,VALID,0.107441,VALID,18.8839,VALID,141,VALID,0,
2014-09-17, 01:15:05,VALID,915.582,VALID,0,VALID,97.6178,VALID,0,VALID,18.8644,VALID,140,VALID,0,
2014-09-17, 01:16:05,VALID,915.628,VALID,0,VALID,97.595,VALID,0,VALID,18.8449,VALID,141,VALID,0,
2014-09-17, 01:17:05,VALID,915.631,VALID,0,VALID,97.6178,VALID,0,VALID,18.8254,VALID,141,VALID,0,
2014-09-17, 01:18:05,VALID,915.66,VALID,0,VALID,97.6102,VALID,0,VALID,18.8254,VALID,141,VALID,0,
2014-09-17, 01:19:05,VALID,915.65,VALID,0,VALID,97.6102,VALID,0,VALID,18.8254,VALID,141,VALID,0,
2014-09-17, 01:20:05,VALID,915.692,VALID,0,VALID,97.6178,VALID,0,VALID,18.7655,VALID,141,VALID,0,
2014-09-17, 01:21:05,VALID,915.681,VALID,0,VALID,97.6331,VALID,0.107441,VALID,18.7669,VALID,141,VALID,0,
2014-09-17, 01:22:05,VALID,915.672,VALID,0,VALID,97.6255,VALID,0,VALID,18.8073,VALID,141,VALID,0,
2014-09-17, 01:23:05,VALID,915.645,VALID,0,VALID,97.6255,VALID,0.107441,VALID,18.8073,VALID,141,VALID,0,
2014-09-17, 01:24:05,VALID,915.642,VALID,0,VALID,97.6255,VALID,0,VALID,18.7864,VALID,141,VALID,0,
2014-09-17, 01:25:05,VALID,915.627,VALID,0,VALID,97.6255,VALID,0.107441,VALID,18.7864,VALID,141,VALID,0,
2014-09-17, 01:26:05,VALID,915.622,VALID,0,VALID,97.6255,VALID,0,VALID,18.7669,VALID,141,VALID,0,
2014-09-17, 01:27:05,VALID,915.633,VALID,0,VALID,97.6483,VALID,0,VALID,18.7669,VALID,141,VALID,0,
2014-09-17, 01:28:05,VALID,915.573,VALID,0,VALID,97.6483,VALID,0.107441,VALID,18.7669,VALID,141,VALID,0,
2014-09-17, 01:29:05,VALID,915.533,VALID,0,VALID,97.656,VALID,0,VALID,18.7084,VALID,141,VALID,0,
2014-09-17, 01:30:05,VALID,915.56,VALID,0,VALID,97.656,VALID,0.107441,VALID,18.6903,VALID,140,VALID,0,
2014-09-17, 01:31:05,VALID,915.558,VALID,0,VALID,97.6483,VALID,0,VALID,18.6304,VALID,141,VALID,0,
2014-09-17, 01:32:05,VALID,915.526,VALID,0,VALID,97.656,VALID,0,VALID,18.6499,VALID,141,VALID,0,
2014-09-17, 01:33:05,VALID,915.502,VALID,0,VALID,97.6483,VALID,0,VALID,18.6109,VALID,141,VALID,0,
2014-09-17, 01:34:05,VALID,915.532,VALID,0,VALID,97.6636,VALID,0.107441,VALID,18.6109,VALID,141,VALID,0,
2014-09-17, 01:35:05,VALID,915.548,VALID,0,VALID,97.656,VALID,0.107441,VALID,18.6319,VALID,136,VALID,0,
2014-09-17, 01:36:05,VALID,915.547,VALID,0,VALID,97.6712,VALID,0,VALID,18.6124,VALID,136,VALID,0,
2014-09-17, 01:37:05,VALID,915.541,VALID,0,VALID,97.6636,VALID,0,VALID,18.6109,VALID,136,VALID,0,
2014-09-17, 01:38:05,VALID,915.551,VALID,0,VALID,97.6636,VALID,0.107441,VALID,18.5914,VALID,136,VALID,0,
2014-09-17, 01:39:05,VALID,915.551,VALID,0,VALID,97.6636,VALID,0,VALID,18.6124,VALID,133,VALID,0,
2014-09-17, 01:40:05,VALID,915.551,VALID,0,VALID,97.6636,VALID,0,VALID,18.6124,VALID,132,VALID,0,
2014-09-17, 01:41:05,VALID,915.548,VALID,0,VALID,97.6483,VALID,0,VALID,18.6319,VALID,121,VALID,0,
2014-09-17, 01:42:05,VALID,915.55,VALID,0,VALID,97.6636,VALID,0,VALID,18.5929,VALID,121,VALID,0,
2014-09-17, 01:43:05,VALID,915.531,VALID,0,VALID,97.6636,VALID,0,VALID,18.5734,VALID,121,VALID,0,
2014-09-17, 01:44:05,VALID,915.485,VALID,0,VALID,97.6712,VALID,0,VALID,18.5525,VALID,121,VALID,0,
2014-09-17, 01:45:05,VALID,915.469,VALID,0,VALID,97.6865,VALID,0,VALID,18.5734,VALID,122,VALID,0,
2014-09-17, 01:46:05,VALID,915.462,VALID,0,VALID,97.6712,VALID,0,VALID,18.5929,VALID,128,VALID,0,
2014-09-17, 01:47:05,VALID,915.427,VALID,0,VALID,97.6636,VALID,0,VALID,18.6124,VALID,130,VALID,0,
2014-09-17, 01:48:05,VALID,915.432,VALID,0,VALID,97.656,VALID,0.107441,VALID,18.6124,VALID,131,VALID,0,
2014-09-17, 01:49:05,VALID,915.403,VALID,0,VALID,97.656,VALID,0,VALID,18.6513,VALID,139,VALID,0,
2014-09-17, 01:50:05,VALID,915.408,VALID,0,VALID,97.6483,VALID,0,VALID,18.6708,VALID,151,VALID,0,
2014-09-17, 01:51:05,VALID,915.388,VALID,0,VALID,97.656,VALID,0,VALID,18.6903,VALID,135,VALID,0,
2014-09-17, 01:52:05,VALID,915.383,VALID,0,VALID,97.656,VALID,0,VALID,18.6499,VALID,127,VALID,0,
2014-09-17, 01:53:05,VALID,915.362,VALID,0,VALID,97.6636,VALID,0,VALID,18.6708,VALID,127,VALID,0,
2014-09-17, 01:54:05,VALID,915.378,VALID,0,VALID,97.6483,VALID,0,VALID,18.6694,VALID,129,VALID,0,
2014-09-17, 01:55:05,VALID,915.386,VALID,0,VALID,97.656,VALID,0,VALID,18.6889,VALID,130,VALID,0,
2014-09-17, 01:56:05,VALID,915.37,VALID,0,VALID,97.6636,VALID,0.107441,VALID,18.7293,VALID,129,VALID,0,
2014-09-17, 01:57:05,VALID,915.36,VALID,0,VALID,97.656,VALID,0,VALID,18.7293,VALID,129,VALID,0,
2014-09-17, 01:58:05,VALID,915.353,VALID,0,VALID,97.656,VALID,0,VALID,18.7488,VALID,121,VALID,0,
2014-09-17, 01:59:05,VALID,915.328,VALID,0,VALID,97.656,VALID,0,VALID,18.7084,VALID,118,VALID,0,
2014-09-17, 02:00:05,VALID,915.312,VALID,0,VALID,97.6712,VALID,0,VALID,18.6889,VALID,118,VALID,0,
2014-09-17, 02:01:05,VALID,915.318,VALID,0,VALID,97.6636,VALID,0,VALID,18.7098,VALID,118,VALID,0,
2014-09-17, 02:02:05,VALID,915.306,VALID,0,VALID,97.6636,VALID,0,VALID,18.7098,VALID,118,VALID,0,
2014-09-17, 02:03:05,VALID,915.33,VALID,0,VALID,97.6712,VALID,0,VALID,18.6903,VALID,118,VALID,0,
2014-09-17, 02:04:05,VALID,915.339,VALID,0,VALID,97.6712,VALID,0,VALID,18.6694,VALID,118,VALID,0,
2014-09-17, 02:05:05,VALID,915.372,VALID,0,VALID,97.6636,VALID,0,VALID,18.6903,VALID,111,VALID,0,
2014-09-17, 02:06:05,VALID,915.369,VALID,0,VALID,97.6788,VALID,0,VALID,18.6708,VALID,110,VALID,0,
2014-09-17, 02:07:05,VALID,915.374,VALID,0,VALID,97.6712,VALID,0,VALID,18.6694,VALID,124,VALID,0,
2014-09-17, 02:08:05,VALID,915.368,VALID,0,VALID,97.6865,VALID,0,VALID,18.6304,VALID,120,VALID,0,
2014-09-17, 02:09:05,VALID,915.353,VALID,0,VALID,97.6712,VALID,0,VALID,18.6499,VALID,124,VALID,0,
2014-09-17, 02:10:05,VALID,915.349,VALID,0,VALID,97.6712,VALID,0,VALID,18.6513,VALID,123,VALID,0,
2014-09-17, 02:11:05,VALID,915.357,VALID,0,VALID,97.6865,VALID,0,VALID,18.6708,VALID,125,VALID,0,
2014-09-17, 02:12:05,VALID,915.35,VALID,0,VALID,97.6941,VALID,0,VALID,18.6499,VALID,122,VALID,0,
2014-09-17, 02:13:05,VALID,915.343,VALID,0,VALID,97.6788,VALID,0.107441,VALID,18.6708,VALID,121,VALID,0,
2014-09-17, 02:14:05,VALID,915.3,VALID,0,VALID,97.6636,VALID,0,VALID,18.6708,VALID,119,VALID,0,
2014-09-17, 02:15:05,VALID,915.34,VALID,0,VALID,97.6636,VALID,0,VALID,18.7098,VALID,129,VALID,0,
2014-09-17, 02:16:05,VALID,915.267,VALID,0,VALID,97.6636,VALID,0,VALID,18.7098,VALID,124,VALID,0,
2014-09-17, 02:17:05,VALID,915.289,VALID,0,VALID,97.6407,VALID,0,VALID,18.7488,VALID,131,VALID,0,
2014-09-17, 02:18:05,VALID,915.287,VALID,0,VALID,97.6483,VALID,0,VALID,18.7683,VALID,148,VALID,0.00234375,
2014-09-17, 02:19:05,VALID,915.254,VALID,0,VALID,97.656,VALID,0,VALID,18.7878,VALID,137,VALID,0.00273437,
2014-09-17, 02:20:05,VALID,915.237,VALID,0,VALID,97.6712,VALID,0,VALID,18.8073,VALID,132,VALID,0,
2014-09-17, 02:21:05,VALID,915.228,VALID,0,VALID,97.6483,VALID,0,VALID,18.8268,VALID,139,VALID,0.00429688,
2014-09-17, 02:22:05,VALID,915.204,VALID,0,VALID,97.656,VALID,0,VALID,18.8463,VALID,134,VALID,0.102734,
2014-09-17, 02:23:05,VALID,915.2,VALID,0,VALID,97.6636,VALID,0,VALID,18.8268,VALID,123,VALID,0,
2014-09-17, 02:24:05,VALID,915.18,VALID,0,VALID,97.6636,VALID,0,VALID,18.8059,VALID,123,VALID,0,
2014-09-17, 02:25:05,VALID,915.141,VALID,0,VALID,97.6407,VALID,0,VALID,18.8449,VALID,146,VALID,0.0945313,
2014-09-17, 02:26:05,VALID,915.116,VALID,0,VALID,97.6483,VALID,0.107441,VALID,18.8658,VALID,150,VALID,0,
2014-09-17, 02:27:05,VALID,915.071,VALID,0,VALID,97.656,VALID,0,VALID,18.8644,VALID,130,VALID,0,
2014-09-17, 02:28:05,VALID,915.054,VALID,0,VALID,97.6636,VALID,0,VALID,18.8658,VALID,148,VALID,0.106641,
2014-09-17, 02:29:05,VALID,915.015,VALID,0,VALID,97.6483,VALID,0,VALID,18.8658,VALID,143,VALID,0.615234,
2014-09-17, 02:30:05,VALID,914.991,VALID,0,VALID,97.6483,VALID,0,VALID,18.8853,VALID,146,VALID,0.416797,
2014-09-17, 02:31:05,VALID,914.991,VALID,0,VALID,97.656,VALID,0,VALID,18.8644,VALID,140,VALID,0.0308594,
2014-09-17, 02:32:05,VALID,914.981,VALID,0,VALID,97.656,VALID,0,VALID,18.9048,VALID,146,VALID,0.725391,
2014-09-17, 02:33:05,VALID,914.967,VALID,0,VALID,97.656,VALID,0,VALID,18.9048,VALID,142,VALID,0.0410156,
2014-09-17, 02:34:05,VALID,914.912,VALID,0,VALID,97.656,VALID,0,VALID,18.8839,VALID,147,VALID,0.838672,
2014-09-17, 02:35:05,VALID,914.922,VALID,0,VALID,97.6483,VALID,0,VALID,18.8839,VALID,135,VALID,0.622656,
2014-09-17, 02:36:05,VALID,914.918,VALID,0,VALID,97.6712,VALID,0,VALID,18.8853,VALID,145,VALID,0.33125,
2014-09-17, 02:37:05,VALID,914.898,VALID,0,VALID,97.6636,VALID,0.107441,VALID,18.8658,VALID,136,VALID,0.165234,
2014-09-17, 02:38:05,VALID,914.866,VALID,0,VALID,97.6407,VALID,0,VALID,18.8658,VALID,143,VALID,0,
2014-09-17, 02:39:05,VALID,914.866,VALID,0,VALID,97.6788,VALID,0,VALID,18.8254,VALID,131,VALID,1.17188,
2014-09-17, 02:40:05,VALID,914.867,VALID,0,VALID,97.6865,VALID,0,VALID,18.8059,VALID,135,VALID,0.0214844,
2014-09-17, 02:41:05,VALID,914.826,VALID,0,VALID,97.6636,VALID,0,VALID,18.8059,VALID,140,VALID,0.405078,
2014-09-17, 02:42:05,VALID,914.846,VALID,0,VALID,97.6712,VALID,0,VALID,18.8073,VALID,151,VALID,0.0195313,
2014-09-17, 02:43:04,VALID,914.821,VALID,0,VALID,97.6941,VALID,0,VALID,18.8073,VALID,134,VALID,0.826953,
2014-09-17, 02:44:04,VALID,914.841,VALID,0,VALID,97.6712,VALID,0,VALID,18.7683,VALID,132,VALID,0.0796875,
2014-09-17, 02:45:04,VALID,914.83,VALID,0,VALID,97.6636,VALID,0,VALID,18.7683,VALID,145,VALID,0,
2014-09-17, 02:46:04,VALID,914.846,VALID,0,VALID,97.6865,VALID,0,VALID,18.7488,VALID,137,VALID,0,
2014-09-17, 02:47:04,VALID,914.794,VALID,0,VALID,97.7093,VALID,0,VALID,18.7293,VALID,128,VALID,0.260547,
2014-09-17, 02:48:04,VALID,914.827,VALID,0,VALID,97.6941,VALID,0,VALID,18.7098,VALID,123,VALID,0,
2014-09-17, 02:49:04,VALID,914.827,VALID,0,VALID,97.6941,VALID,0,VALID,18.6499,VALID,140,VALID,0.0351563,
2014-09-17, 02:50:04,VALID,914.84,VALID,0,VALID,97.6865,VALID,0,VALID,18.6304,VALID,124,VALID,0.00234375,
2014-09-17, 02:51:04,VALID,914.88,VALID,0,VALID,97.7246,VALID,0,VALID,18.6319,VALID,141,VALID,0,
2014-09-17, 02:52:04,VALID,914.896,VALID,0,VALID,97.7169,VALID,0,VALID,18.6124,VALID,133,VALID,0,
2014-09-17, 02:53:04,VALID,914.907,VALID,0,VALID,97.7093,VALID,0,VALID,18.5929,VALID,131,VALID,0,
2014-09-17, 02:54:04,VALID,914.884,VALID,0,VALID,97.7322,VALID,0,VALID,18.5734,VALID,137,VALID,0,
2014-09-17, 02:55:04,VALID,914.889,VALID,0,VALID,97.7169,VALID,0,VALID,18.5525,VALID,136,VALID,0,
2014-09-17, 02:56:04,VALID,914.896,VALID,0,VALID,97.7169,VALID,0,VALID,18.572,VALID,136,VALID,0,
2014-09-17, 02:57:04,VALID,914.871,VALID,0,VALID,97.7169,VALID,0,VALID,18.5734,VALID,134,VALID,0,
2014-09-17, 02:58:04,VALID,914.868,VALID,0,VALID,97.7169,VALID,0,VALID,18.5734,VALID,132,VALID,0,
2014-09-17, 02:59:04,VALID,914.84,VALID,0,VALID,97.7169,VALID,0,VALID,18.5734,VALID,139,VALID,0,
2014-09-17, 03:00:04,VALID,914.813,VALID,0,VALID,97.7169,VALID,0,VALID,18.5344,VALID,130,VALID,0,
2014-09-17, 03:01:04,VALID,914.843,VALID,0,VALID,97.7246,VALID,0,VALID,18.5344,VALID,131,VALID,0,
2014-09-17, 03:02:04,VALID,914.85,VALID,0,VALID,97.7398,VALID,0,VALID,18.5149,VALID,132,VALID,0,
2014-09-17, 03:03:04,VALID,914.86,VALID,0,VALID,97.7246,VALID,0,VALID,18.494,VALID,125,VALID,0.00117188,
2014-09-17, 03:04:04,VALID,914.867,VALID,0,VALID,97.7246,VALID,0,VALID,18.494,VALID,133,VALID,0,
2014-09-17, 03:05:04,VALID,914.875,VALID,0,VALID,97.7322,VALID,0.107441,VALID,18.4745,VALID,136,VALID,0,
2014-09-17, 03:06:04,VALID,914.879,VALID,0,VALID,97.7398,VALID,0,VALID,18.4745,VALID,136,VALID,0.435156,
2014-09-17, 03:07:04,VALID,914.857,VALID,0,VALID,97.7398,VALID,0,VALID,18.4745,VALID,139,VALID,0,
2014-09-17, 03:08:04,VALID,914.846,VALID,0,VALID,97.7322,VALID,0,VALID,18.455,VALID,133,VALID,0,
2014-09-17, 03:09:04,VALID,914.852,VALID,0,VALID,97.7246,VALID,0,VALID,18.4759,VALID,140,VALID,0,
2014-09-17, 03:10:04,VALID,914.848,VALID,0,VALID,97.7322,VALID,0.107441,VALID,18.4745,VALID,136,VALID,0,
2014-09-17, 03:11:04,VALID,914.878,VALID,0,VALID,97.7398,VALID,0,VALID,18.5149,VALID,143,VALID,0,
2014-09-17, 03:12:04,VALID,914.841,VALID,0,VALID,97.7322,VALID,0,VALID,18.4954,VALID,144,VALID,0,
2014-09-17, 03:13:04,VALID,914.805,VALID,0,VALID,97.7322,VALID,0,VALID,18.5135,VALID,146,VALID,0,
2014-09-17, 03:14:04,VALID,914.847,VALID,0,VALID,97.7246,VALID,0,VALID,18.5135,VALID,149,VALID,0,
2014-09-17, 03:15:04,VALID,914.843,VALID,0,VALID,97.7398,VALID,0,VALID,18.5149,VALID,137,VALID,0,
2014-09-17, 03:16:04,VALID,914.817,VALID,0,VALID,97.7322,VALID,0,VALID,18.5149,VALID,144,VALID,0,
2014-09-17, 03:17:04,VALID,914.824,VALID,0,VALID,97.7398,VALID,0,VALID,18.5149,VALID,146,VALID,0,
2014-09-17, 03:18:04,VALID,914.808,VALID,0,VALID,97.7246,VALID,0,VALID,18.5149,VALID,150,VALID,0,
2014-09-17, 03:19:04,VALID,914.854,VALID,0,VALID,97.7322,VALID,0,VALID,18.494,VALID,150,VALID,0,
2014-09-17, 03:20:04,VALID,914.873,VALID,0,VALID,97.7398,VALID,0,VALID,18.455,VALID,145,VALID,0.00195313,
2014-09-17, 03:21:04,VALID,914.853,VALID,0,VALID,97.7398,VALID,0,VALID,18.4564,VALID,142,VALID,0,
2014-09-17, 03:22:04,VALID,914.841,VALID,0,VALID,97.7398,VALID,0,VALID,18.4564,VALID,137,VALID,0.185937,
2014-09-17, 03:23:04,VALID,914.828,VALID,0,VALID,97.7627,VALID,0,VALID,18.4369,VALID,131,VALID,0,
2014-09-17, 03:24:04,VALID,914.814,VALID,0,VALID,97.7322,VALID,0,VALID,18.4369,VALID,125,VALID,0.607031,
2014-09-17, 03:25:04,VALID,914.783,VALID,0,VALID,97.7627,VALID,0,VALID,18.3965,VALID,116,VALID,0.498828,
2014-09-17, 03:26:04,VALID,914.761,VALID,0,VALID,97.7474,VALID,0,VALID,18.4174,VALID,119,VALID,0.367578,
2014-09-17, 03:27:04,VALID,914.764,VALID,0,VALID,97.7474,VALID,0,VALID,18.4174,VALID,124,VALID,0.259766,
2014-09-17, 03:28:04,VALID,914.797,VALID,0,VALID,97.7474,VALID,0,VALID,18.377,VALID,124,VALID,0.0707031,
2014-09-17, 03:29:04,VALID,914.732,VALID,0,VALID,97.7627,VALID,0,VALID,18.3575,VALID,126,VALID,0,
2014-09-17, 03:30:04,VALID,914.711,VALID,0,VALID,97.7551,VALID,0,VALID,18.3979,VALID,121,VALID,0.00195313,
2014-09-17, 03:31:04,VALID,914.698,VALID,0,VALID,97.7551,VALID,0,VALID,18.3784,VALID,152,VALID,0.08125,
2014-09-17, 03:32:04,VALID,914.688,VALID,0,VALID,97.7551,VALID,0,VALID,18.3979,VALID,155,VALID,0.084375,
2014-09-17, 03:33:04,VALID,914.71,VALID,0,VALID,97.7398,VALID,0,VALID,18.4174,VALID,152,VALID,0,
2014-09-17, 03:34:04,VALID,914.683,VALID,0,VALID,97.7551,VALID,0,VALID,18.4369,VALID,157,VALID,0.00976563,
2014-09-17, 03:35:04,VALID,914.723,VALID,0,VALID,97.7627,VALID,0,VALID,18.3784,VALID,133,VALID,0,
2014-09-17, 03:36:04,VALID,914.704,VALID,0,VALID,97.7627,VALID,0,VALID,18.3589,VALID,130,VALID,0,
2014-09-17, 03:37:04,VALID,914.69,VALID,0,VALID,97.7703,VALID,0,VALID,18.3394,VALID,128,VALID,0,
2014-09-17, 03:38:04,VALID,914.683,VALID,0,VALID,97.7627,VALID,0,VALID,18.3004,VALID,128,VALID,0,
2014-09-17, 03:39:04,VALID,914.673,VALID,0,VALID,97.7856,VALID,0.107441,VALID,18.2406,VALID,128,VALID,0,
2014-09-17, 03:40:04,VALID,914.708,VALID,0,VALID,97.7779,VALID,0.107441,VALID,18.2601,VALID,128,VALID,0,
2014-09-17, 03:41:04,VALID,914.706,VALID,0,VALID,97.8084,VALID,0.107441,VALID,18.2601,VALID,119,VALID,0,
2014-09-17, 03:42:04,VALID,914.725,VALID,0,VALID,97.7932,VALID,0,VALID,18.2615,VALID,118,VALID,0,
2014-09-17, 03:43:04,VALID,914.765,VALID,0,VALID,97.7703,VALID,0,VALID,18.2406,VALID,137,VALID,0,
2014-09-17, 03:44:04,VALID,914.752,VALID,0,VALID,97.7779,VALID,0,VALID,18.242,VALID,136,VALID,0,
2014-09-17, 03:45:04,VALID,914.739,VALID,0,VALID,97.7779,VALID,0,VALID,18.2615,VALID,121,VALID,0,
2014-09-17, 03:46:04,VALID,914.684,VALID,0,VALID,97.8084,VALID,0,VALID,18.2016,VALID,119,VALID,0,
2014-09-17, 03:47:04,VALID,914.652,VALID,0,VALID,97.8237,VALID,0.107441,VALID,18.203,VALID,119,VALID,0,
2014-09-17, 03:48:04,VALID,914.623,VALID,0,VALID,97.7703,VALID,0.107441,VALID,18.2016,VALID,119,VALID,0,
2014-09-17, 03:49:04,VALID,914.609,VALID,0,VALID,97.7779,VALID,0,VALID,18.2225,VALID,119,VALID,0,
2014-09-17, 03:50:04,VALID,914.607,VALID,0,VALID,97.7856,VALID,0,VALID,18.1821,VALID,119,VALID,0,
2014-09-17, 03:51:04,VALID,914.606,VALID,0,VALID,97.8008,VALID,0,VALID,18.203,VALID,119,VALID,0,
2014-09-17, 03:52:04,VALID,914.633,VALID,0,VALID,97.7932,VALID,0.107441,VALID,18.1821,VALID,119,VALID,0,
2014-09-17, 03:53:04,VALID,914.614,VALID,0,VALID,97.7779,VALID,0.107441,VALID,18.203,VALID,119,VALID,0,
2014-09-17, 03:54:04,VALID,914.581,VALID,0,VALID,97.8084,VALID,0,VALID,18.1431,VALID,119,VALID,0,